Weather History for KAEG - April, 2013

Change the Weather History Date:

Sunday, April 21, 2013

  Actual Average Record
Temperature  
Mean Temperature 50 °F -  
Max Temperature 69 °F - - ()
Min Temperature 32 °F - - ()
Degree Days  
Heating Degree Days 14    
Moisture  
Dew Point 12 °F    
Average Humidity 26    
Maximum Humidity 48    
Minimum Humidity 7    
Precipitation  
Precipitation 0.00 in - - ()
Sea Level Pressure  
Sea Level Pressure 30.11 in    
Wind  
Wind Speed 8 mph (NW)    
Max Wind Speed 13 mph    
Max Gust Speed 21 mph    
Visibility 10 miles    
Events      
T = Trace of Precipitation, MM = Missing Value Source: NWS Daily Summary

Daily Weather History Graph

Daily Weather History Graph

Search for Another Location

Airport or City:

Trip Planner

Search our weather history database for the weather conditions in past years. The results will help you decide how hot, cold, wet, or windy it might be!

Date:

Astronomy

Apr. 21, 2013 Rise Set
Actual Time 6:27 AM MDT 7:44 PM MDT
Civil Twilight 6:00 AM MDT 8:11 PM MDT
Nautical Twilight 5:29 AM MDT 8:43 PM MDT
Astronomical Twilight 4:56 AM MDT 9:16 PM MDT
Moon 3:42 PM MDT (4/21) 3:40 AM MDT (4/21)
Length of Visible Light 14h 10m
Length of Day
13h 17m
Waxing Gibbous, 80% of the Moon is Illuminated
Apr 21
Waxing Gibbous
Apr 25
Full
May 2
Last Quarter
May 9
New
May 17
First Quarter

Hourly Weather History & Observations

Time (MDT) Temp. Windchill Dew Point Humidity Pressure Visibility Wind Dir Wind Speed Gust Speed Precip Events Conditions
12:15 AM 41.0 °F 35.8 °F 14.0 °F 33% 30.10 in 10.0 mi NNW 8.1 mph - N/A   Clear
12:35 AM 41.0 °F 35.2 °F 14.0 °F 33% 30.10 in 10.0 mi NNW 9.2 mph - N/A   Clear
3:15 AM 37.4 °F 32.1 °F 14.0 °F 38% 30.11 in 10.0 mi NW 6.9 mph - N/A   Clear
3:35 AM 35.6 °F 29.9 °F 12.2 °F 38% 30.12 in 10.0 mi NW 6.9 mph - N/A   Clear
3:55 AM 33.8 °F 27.7 °F 14.0 °F 44% 30.12 in 10.0 mi WNW 6.9 mph - N/A   Clear
4:15 AM 35.6 °F 29.9 °F 14.0 °F 41% 30.13 in 10.0 mi WNW 6.9 mph - N/A   Clear
4:35 AM 35.6 °F 29.2 °F 14.0 °F 41% 30.13 in 10.0 mi WNW 8.1 mph - N/A   Clear
4:55 AM 35.6 °F 29.2 °F 14.0 °F 41% 30.13 in 10.0 mi WNW 8.1 mph - N/A   Clear
5:15 AM 32.0 °F 24.8 °F 14.0 °F 48% 30.14 in 10.0 mi NW 8.1 mph - N/A   Clear
5:35 AM 35.6 °F 29.2 °F 14.0 °F 41% 30.14 in 10.0 mi WNW 8.1 mph - N/A   Clear
5:50 AM 32.0 °F 25.6 °F 12.2 °F 44% 30.14 in 10.0 mi West 6.9 mph - N/A   Clear
6:50 AM 35.6 °F 28.6 °F 14.0 °F 41% 30.16 in 10.0 mi WNW 9.2 mph - N/A   Clear
7:50 AM 44.6 °F 40.2 °F 17.6 °F 34% 30.18 in 10.0 mi WNW 8.1 mph - N/A   Clear
8:50 AM 50.0 °F - 17.6 °F 28% 30.19 in 10.0 mi NW 8.1 mph - N/A   Clear
9:50 AM 50.0 °F - 19.4 °F 30% 30.20 in 10.0 mi NW 9.2 mph - N/A   Clear
10:50 AM 55.4 °F - 19.4 °F 25% 30.20 in 10.0 mi WNW 8.1 mph - N/A   Clear
11:50 AM 57.2 °F - 17.6 °F 21% 30.18 in 10.0 mi WNW 12.7 mph - N/A   Clear
12:50 PM 60.8 °F - 17.6 °F 19% 30.15 in 10.0 mi WNW 8.1 mph - N/A   Clear
1:50 PM 62.6 °F - 14.0 °F 15% 30.12 in 10.0 mi West 9.2 mph - N/A   Clear
2:50 PM 66.2 °F - 10.4 °F 11% 30.10 in 10.0 mi West 11.5 mph 20.7 mph N/A   Clear
3:50 PM 68.0 °F - 6.8 °F 9% 30.07 in 10.0 mi Calm Calm - N/A   Clear
4:50 PM 69.8 °F - 5.0 °F 8% 30.04 in 10.0 mi NW 12.7 mph 16.1 mph N/A   Clear
5:50 PM 68.0 °F - -0.4 °F 7% 30.04 in 10.0 mi NNW 10.4 mph 17.3 mph N/A   Clear
6:50 PM 68.0 °F - 5.0 °F 8% 30.04 in 10.0 mi NNW 11.5 mph - N/A   Clear
7:50 PM 62.6 °F - 8.6 °F 12% 30.05 in 10.0 mi NNW 8.1 mph - N/A   Clear
8:50 PM 57.2 °F - 8.6 °F 14% 30.06 in 10.0 mi North 5.8 mph - N/A   Clear
9:50 PM 51.8 °F - 6.8 °F 16% 30.09 in 10.0 mi Calm Calm - N/A   Clear
10:15 PM 50.0 °F - 6.8 °F 17% 30.09 in 10.0 mi NNW 5.8 mph - N/A   Clear
10:35 PM 48.2 °F - 6.8 °F 19% 30.10 in 10.0 mi NW 5.8 mph - N/A   Clear
10:55 PM 50.0 °F - 8.6 °F 19% 30.09 in 10.0 mi NNW 5.8 mph - N/A   Clear
11:15 PM 48.2 °F - 5.0 °F 17% 30.09 in 10.0 mi NNW 5.8 mph - N/A   Clear
11:35 PM 48.2 °F - 6.8 °F 19% 30.09 in 10.0 mi NNW 6.9 mph - N/A   Clear
11:55 PM 50.0 °F - 8.6 °F 19% 30.08 in 10.0 mi NNW 6.9 mph - N/A   Clear